weather.gov     
National Weather Service

Regional Weather Roundup
NWS Homepage
This page is being discontinued on March 12, 2014.
The same data is available at this site. Please update your bookmarks.
Thank you, and we apologize for the inconvenience.
Please send an email to SR-SRH.Webmaster@noaa.gov with any concerns.


Current Version
Previous Version:    01  02  03  04  05  06  07  08  09  10  11  12  13  14  15  16  17  18  19  20  21  22  23  24  25  26  27  
[Printable]
477
ASUS42 KCAE 011110
RWRCAE
REGIONAL WEATHER ROUNDUP
NATIONAL WEATHER SERVICE COLUMBIA SC
700 AM EDT MON SEP 01 2014

NOTE: "FAIR" INDICATES FEW OR NO CLOUDS BELOW 12,000 FEET WITH NO
SIGNIFICANT WEATHER AND/OR OBSTRUCTIONS TO VISIBILITY.

NOT ALL STATIONS ARE QUALITY CONTROLLED BY THE NATIONAL
WEATHER SERVICE. USE DATA WITH CAUTION...ESPECIALLY
DEWPOINT OBSERVATIONS.

SCZ001>056-GAZ040-063>065-077-011200-
...UPSTATE SOUTH CAROLINA...

CITY           SKY/WX    TMP DP  RH WIND       PRES   REMARKS
ANDERSON       PTCLDY    69  68  96 CALM      30.14R
LIBERTY        FAIR      68  32  26 CALM      30.14R
SPARTANBURG    FAIR      72 N/A N/A CALM      30.13R
CLEMSON        PTCLDY    73  69  87 CALM      30.15R
GREENVILLE     PTCLDY    73  69  87 CALM      30.15R
GREENWOOD      CLEAR     72  69  90 CALM      30.14R
GREER          PTCLDY    71  69  93 CALM      30.13R
ROCK HILL      CLEAR     72  70  93 W6        30.13R
LAURENS        FAIR      70 N/A N/A SW3       30.14R


...CENTRAL SOUTH CAROLINA...

CITY           SKY/WX    TMP DP  RH WIND       PRES   REMARKS
COLUMBIA APT   CLEAR     74  70  87 CALM      30.10S
COLUMBIA OWENS CLEAR     74  71  91 CALM      30.12R
DARLINGTON     MOCLDY    72  66  83 CALM      30.13R
FLORENCE       CLEAR     73  71  93 CALM      30.12R
MCENTIRE ANGB  CLEAR     71  71 100 E2        30.12R FOG
ORANGEBURG     CLEAR     73  70  90 CALM      30.12R
SUMTER SHAW    CLEAR     73  73  97 CALM      30.10R
NEWBERRY       FAIR      72  72 100 W3        30.15R
AIKEN          FAIR      72  72 100 CALM      30.15R
BARNWELL       PTSUNNY   72  72 100 CALM      30.12R FOG
MANNING        FAIR      75 N/A N/A CALM      30.11R
CAMDEN         FAIR      72  72 100 CALM      30.13R
LANCASTER      RAIN      72  72 100 CALM      30.12S
WINNSBORO      FAIR      72  72 100 SW3       30.13R


...EASTERN AND COASTAL SOUTH CAROLINA...

CITY           SKY/WX    TMP DP  RH WIND       PRES   REMARKS
MYRTLE BEACH   CLEAR     77  73  88 CALM      30.11R
N MYRTLE BCH   CLEAR     78  75  90 W3        30.11R
CONWAY         FAIR      72  72 100 CALM      30.12R
MARION         FAIR      73  73 100 CALM      30.12R
HARTSVILLE     FAIR      72  70  94 CALM      30.13R
FLORENCE       CLEAR     73  71  93 CALM      30.12R
DARLINGTON     MOCLDY    72  66  83 CALM      30.13R
CHARLESTON APT PTCLDY    78  75  90 CALM      30.11R
MOUNT PLEASANT FAIR      75  75 100 CALM      30.11R FOG
WALTERBORO     SUNNY     75 N/A N/A CALM      30.12R HAZE
BEAUFORT       CLEAR     76  72  87 NW5       30.11R


...EASTERN GEORGIA...

CITY           SKY/WX    TMP DP  RH WIND       PRES   REMARKS
AUGUSTA BUSH F MOCLDY    71  70  96 CALM      30.10S FOG
AUGUSTA DANIEL MOCLDY    75  72  90 CALM      30.12R
THOMSON        MOCLDY    72  72 100 CALM      30.16S
WASHINGTON     FAIR      72  72 100 CALM      30.12F
SYLVANIA       MOSUNNY   64  64 100 CALM      30.12R FOG
STATESBORO     CLEAR     72  72 100 CALM      30.11R FOG
SAVANNAH       PTCLDY    74  70  87 CALM      30.11R


...SOUTHERN NORTH CAROLINA...

CITY           SKY/WX    TMP DP  RH WIND       PRES   REMARKS
CHARLOTTE      MOCLDY    72  69  90 CALM      30.13R
MONROE         PTCLDY    71  69  93 SW5       30.12R
WADESBORO      MOSUNNY   70  68  94 CALM      30.11S
ROCKINGHAM     MOSUNNY   73  71  94 CALM      30.12R
RUTHERFORDTON  MOCLDY    68  67  98 CALM      30.15R
ASHEVILLE      FOG       67  66  97 CALM      30.21S VSB 1/2

$$




U.S. Dept. of Commerce
NOAA National Weather Service
1325 East West Highway
Silver Spring, MD 20910
E-mail: w-nws.webmaster@noaa.gov
Page last modified: May 16, 2007
NATIONAL WEATHER SERVICE: for Safety, for Work, for Fun - FOR LIFE